User: anonymous   Login
Location: Unspecified
(0.0000°N, 0.0000°E)
Time: 05:08:11
(UTC+00:00)
Language:

MERIDIAN 3 - Orbit

View from above orbital plane
View from above orbital plane
View from above satellite
View from above satellite

Ground track
Ground track

The orbit data is extracted from the following two-line orbital elements,

1 37212U 10058A   24169.03436179  .00000219  00000-0  00000-0 0  9996
2 37212  63.4919 163.3018 6455504 264.6168  24.1295  2.00617637 99815
Epoch (UTC): 17 June 2024 00:49:28
Eccentricity: 0.6455504
inclination: 63.4919°
perigee height: 3034 km
apogee height: 37320 km
right ascension of ascending node: 163.3018°
argument of perigee: 264.6168°
revolutions per day: 2.00617637
mean anomaly at epoch: 24.1295°
orbit number at epoch: 9981

The dashed part of the orbit path shows where the satellite is in the earth's shadow,  

DLR